Time,TemperatureF,DewpointF,PressureIn,WindDirection,WindDirectionDegrees,WindSpeedMPH,WindSpeedGustMPH,Humidity,HourlyPrecipIn,Conditions,Clouds,dailyrainin,SoftwareType,DateUTC
2013-09-02 00:01:00,67.8,63.1,29.82,NW,313,0.0,5.0,85,0.00,,,0.00,meteohub,2013-09-02 05:01:00,
2013-09-02 00:06:00,67.6,63.0,29.82,WNW,303,0.0,5.0,85,0.00,,,0.00,meteohub,2013-09-02 05:06:00,
2013-09-02 00:11:00,67.5,62.4,29.83,WNW,303,0.0,5.0,84,0.00,,,0.00,meteohub,2013-09-02 05:11:00,
2013-09-02 00:16:00,67.3,62.6,29.83,WNW,303,0.0,4.0,85,0.00,,,0.00,meteohub,2013-09-02 05:16:00,
2013-09-02 00:21:00,66.9,62.6,29.83,WNW,303,0.0,4.0,86,0.00,,,0.00,meteohub,2013-09-02 05:21:00,
2013-09-02 00:26:00,66.7,62.8,29.83,West,271,3.0,4.0,87,0.00,,,0.00,meteohub,2013-09-02 05:26:00,
2013-09-02 00:31:00,66.0,62.4,29.83,West,271,0.0,5.0,88,0.00,,,0.00,meteohub,2013-09-02 05:31:00,
2013-09-02 00:37:00,65.5,61.9,29.83,West,271,0.0,5.0,88,0.00,,,0.00,meteohub,2013-09-02 05:37:00,
2013-09-02 00:42:00,64.9,61.7,29.83,West,271,0.0,5.0,89,0.00,,,0.00,meteohub,2013-09-02 05:42:00,
2013-09-02 00:47:00,64.4,61.2,29.83,West,271,0.0,0.0,89,0.00,,,0.00,meteohub,2013-09-02 05:47:00,
2013-09-02 00:52:00,64.0,61.0,29.83,West,271,0.0,0.0,90,0.00,,,0.00,meteohub,2013-09-02 05:52:00,
2013-09-02 00:57:00,63.9,61.2,29.83,West,271,0.0,0.0,91,0.00,,,0.00,meteohub,2013-09-02 05:57:00,
2013-09-02 01:02:00,63.7,61.0,29.83,West,271,0.0,0.0,91,0.00,,,0.00,meteohub,2013-09-02 06:02:00,
2013-09-02 01:07:00,63.5,60.8,29.83,West,271,0.0,0.0,91,0.00,,,0.00,meteohub,2013-09-02 06:07:00,
2013-09-02 01:12:00,63.3,60.6,29.83,West,271,0.0,0.0,91,0.00,,,0.00,meteohub,2013-09-02 06:12:00,
2013-09-02 01:17:00,63.1,60.8,29.83,West,271,0.0,0.0,92,0.00,,,0.00,meteohub,2013-09-02 06:17:00,
2013-09-02 01:22:00,63.0,60.6,29.83,West,271,0.0,0.0,92,0.00,,,0.00,meteohub,2013-09-02 06:22:00,
2013-09-02 01:27:00,62.8,60.4,29.83,West,271,0.0,0.0,92,0.00,,,0.00,meteohub,2013-09-02 06:27:00,
2013-09-02 01:32:00,62.4,60.1,29.83,West,271,0.0,0.0,92,0.00,,,0.00,meteohub,2013-09-02 06:32:00,
2013-09-02 01:37:00,62.4,60.4,29.83,West,271,0.0,0.0,93,0.00,,,0.00,meteohub,2013-09-02 06:37:00,
2013-09-02 01:42:00,62.2,60.3,29.83,West,271,0.0,0.0,93,0.00,,,0.00,meteohub,2013-09-02 06:42:00,
2013-09-02 01:47:00,62.1,60.1,29.83,West,271,0.0,0.0,93,0.00,,,0.00,meteohub,2013-09-02 06:47:00,
2013-09-02 01:52:00,61.9,59.9,29.83,West,271,0.0,0.0,93,0.00,,,0.00,meteohub,2013-09-02 06:52:00,
2013-09-02 01:57:00,61.9,59.9,29.83,West,271,0.0,0.0,93,0.00,,,0.00,meteohub,2013-09-02 06:57:00,
2013-09-02 02:02:00,62.1,60.3,29.83,WNW,302,0.0,1.0,94,0.00,,,0.00,meteohub,2013-09-02 07:02:00,
2013-09-02 02:07:00,62.2,60.4,29.83,WNW,301,0.0,2.0,94,0.00,,,0.00,meteohub,2013-09-02 07:07:00,
2013-09-02 02:12:00,62.8,61.0,29.83,WNW,301,0.0,2.0,94,0.00,,,0.00,meteohub,2013-09-02 07:12:00,
2013-09-02 02:17:00,63.1,61.2,29.83,WNW,298,0.0,2.0,93,0.00,,,0.00,meteohub,2013-09-02 07:17:00,
2013-09-02 02:22:00,63.9,61.5,29.83,NW,312,0.0,2.0,92,0.00,,,0.00,meteohub,2013-09-02 07:22:00,
2013-09-02 02:27:00,64.8,61.5,29.83,NW,320,1.0,6.0,89,0.00,,,0.00,meteohub,2013-09-02 07:27:00,
2013-09-02 02:32:00,65.1,61.5,29.83,NNW,336,1.0,6.0,88,0.00,,,0.00,meteohub,2013-09-02 07:32:00,
2013-09-02 02:37:00,65.3,61.7,29.83,WNW,294,5.0,7.0,88,0.00,,,0.00,meteohub,2013-09-02 07:37:00,
2013-09-02 02:42:00,65.1,61.2,29.83,NW,306,0.0,7.0,87,0.00,,,0.00,meteohub,2013-09-02 07:42:00,
2013-09-02 02:47:00,65.1,61.5,29.83,NW,317,4.0,7.0,88,0.00,,,0.00,meteohub,2013-09-02 07:47:00,
2013-09-02 02:52:00,65.1,61.2,29.84,NW,315,3.0,6.0,87,0.00,,,0.00,meteohub,2013-09-02 07:52:00,
2013-09-02 02:57:00,65.1,61.2,29.84,NW,306,0.0,7.0,87,0.00,,,0.00,meteohub,2013-09-02 07:57:00,
2013-09-02 03:02:00,64.9,61.0,29.84,NW,306,5.0,7.0,87,0.00,,,0.00,meteohub,2013-09-02 08:02:00,
2013-09-02 03:07:00,64.8,61.2,29.84,NW,309,2.0,8.0,88,0.00,,,0.00,meteohub,2013-09-02 08:07:00,
2013-09-02 03:12:00,64.6,60.6,29.84,NW,316,0.0,8.0,87,0.00,,,0.00,meteohub,2013-09-02 08:12:00,
2013-09-02 03:17:00,64.2,60.6,29.84,NW,323,1.0,9.0,88,0.00,,,0.00,meteohub,2013-09-02 08:17:00,
2013-09-02 03:22:00,64.0,60.4,29.84,NW,307,4.0,9.0,88,0.00,,,0.00,meteohub,2013-09-02 08:22:00,
2013-09-02 03:27:00,63.9,60.6,29.85,NW,325,1.0,9.0,89,0.00,,,0.00,meteohub,2013-09-02 08:27:00,
2013-09-02 03:32:00,63.9,60.6,29.85,NW,311,2.0,7.0,89,0.00,,,0.00,meteohub,2013-09-02 08:32:00,
2013-09-02 03:37:00,63.7,60.4,29.85,NW,309,1.0,6.0,89,0.00,,,0.00,meteohub,2013-09-02 08:37:00,
2013-09-02 03:42:00,63.7,60.4,29.85,NW,305,4.0,8.0,89,0.00,,,0.00,meteohub,2013-09-02 08:42:00,
2013-09-02 03:47:00,63.5,60.3,29.85,NNW,331,0.0,8.0,89,0.00,,,0.00,meteohub,2013-09-02 08:47:00,
2013-09-02 03:52:00,63.5,60.3,29.85,NW,310,1.0,5.0,89,0.00,,,0.00,meteohub,2013-09-02 08:52:00,
2013-09-02 03:57:00,63.5,60.4,29.85,NW,313,2.0,5.0,90,0.00,,,0.00,meteohub,2013-09-02 08:57:00,
2013-09-02 04:02:00,63.3,59.7,29.85,NW,306,2.0,6.0,88,0.00,,,0.00,meteohub,2013-09-02 09:02:00,
2013-09-02 04:07:00,63.1,60.1,29.86,NW,304,0.0,6.0,90,0.00,,,0.00,meteohub,2013-09-02 09:07:00,
2013-09-02 04:12:00,63.0,59.9,29.86,NW,304,2.0,6.0,90,0.00,,,0.00,meteohub,2013-09-02 09:12:00,
2013-09-02 04:17:00,62.8,60.1,29.86,NW,326,1.0,6.0,91,0.00,,,0.00,meteohub,2013-09-02 09:17:00,
2013-09-02 04:22:00,62.8,60.1,29.86,NNW,339,0.0,6.0,91,0.00,,,0.00,meteohub,2013-09-02 09:22:00,
2013-09-02 04:27:00,62.8,60.1,29.86,NNW,338,0.0,6.0,91,0.00,,,0.00,meteohub,2013-09-02 09:27:00,
2013-09-02 04:32:00,62.8,59.7,29.86,NW,311,0.0,4.0,90,0.00,,,0.00,meteohub,2013-09-02 09:32:00,
2013-09-02 04:37:00,62.6,59.5,29.86,NW,318,0.0,6.0,90,0.00,,,0.00,meteohub,2013-09-02 09:37:00,
2013-09-02 04:42:00,62.4,59.7,29.86,NW,315,2.0,6.0,91,0.00,,,0.00,meteohub,2013-09-02 09:42:00,
2013-09-02 04:47:00,62.2,59.5,29.87,NW,315,0.0,6.0,91,0.00,,,0.00,meteohub,2013-09-02 09:47:00,
2013-09-02 04:52:00,62.1,59.4,29.87,NW,315,0.0,4.0,91,0.00,,,0.00,meteohub,2013-09-02 09:52:00,
2013-09-02 04:57:00,61.9,59.2,29.87,NW,313,0.0,4.0,91,0.00,,,0.00,meteohub,2013-09-02 09:57:00,
2013-09-02 05:02:00,61.5,59.2,29.87,NW,313,0.0,4.0,92,0.00,,,0.00,meteohub,2013-09-02 10:02:00,
2013-09-02 05:07:00,61.2,58.8,29.87,NW,313,0.0,4.0,92,0.00,,,0.00,meteohub,2013-09-02 10:07:00,
2013-09-02 05:12:00,61.0,58.6,29.88,NW,313,0.0,0.0,92,0.00,,,0.00,meteohub,2013-09-02 10:12:00,
2013-09-02 05:17:00,60.8,58.5,29.88,NW,313,0.0,0.0,92,0.00,,,0.00,meteohub,2013-09-02 10:17:00,
2013-09-02 05:22:00,60.6,58.6,29.88,NW,313,0.0,0.0,93,0.00,,,0.00,meteohub,2013-09-02 10:22:00,
2013-09-02 05:27:00,60.6,58.6,29.88,NW,313,0.0,0.0,93,0.00,,,0.00,meteohub,2013-09-02 10:27:00,
2013-09-02 05:32:00,60.4,58.5,29.88,NW,313,0.0,0.0,93,0.00,,,0.00,meteohub,2013-09-02 10:32:00,
2013-09-02 05:37:00,60.3,58.3,29.89,NW,313,0.0,0.0,93,0.00,,,0.00,meteohub,2013-09-02 10:37:00,
2013-09-02 05:42:00,60.3,58.5,29.89,NW,313,0.0,0.0,94,0.00,,,0.00,meteohub,2013-09-02 10:42:00,
2013-09-02 05:47:00,60.1,58.3,29.89,NW,313,0.0,0.0,94,0.00,,,0.00,meteohub,2013-09-02 10:47:00,
2013-09-02 05:52:00,59.9,58.1,29.89,NW,313,0.0,0.0,94,0.00,,,0.00,meteohub,2013-09-02 10:52:00,
2013-09-02 05:57:00,59.7,57.9,29.90,NW,313,0.0,0.0,94,0.00,,,0.00,meteohub,2013-09-02 10:57:00,
2013-09-02 06:02:00,59.7,57.9,29.90,NW,313,0.0,0.0,94,0.00,,,0.00,meteohub,2013-09-02 11:02:00,
2013-09-02 06:07:00,59.5,57.7,29.90,NW,313,0.0,0.0,94,0.00,,,0.00,meteohub,2013-09-02 11:07:00,
2013-09-02 06:12:00,59.5,57.7,29.90,NW,313,0.0,0.0,94,0.00,,,0.00,meteohub,2013-09-02 11:12:00,
2013-09-02 06:17:00,59.5,57.7,29.90,NW,313,0.0,0.0,94,0.00,,,0.00,meteohub,2013-09-02 11:17:00,
2013-09-02 06:22:00,59.5,58.1,29.90,NW,313,0.0,0.0,95,0.00,,,0.00,meteohub,2013-09-02 11:22:00,
2013-09-02 06:27:00,59.5,58.1,29.90,NW,313,0.0,0.0,95,0.00,,,0.00,meteohub,2013-09-02 11:27:00,
2013-09-02 06:32:00,59.5,58.1,29.90,NW,313,0.0,0.0,95,0.00,,,0.00,meteohub,2013-09-02 11:32:00,
2013-09-02 06:37:00,59.5,58.1,29.91,NW,313,0.0,0.0,95,0.00,,,0.00,meteohub,2013-09-02 11:37:00,
2013-09-02 06:42:00,59.7,58.3,29.91,NW,313,1.0,0.0,95,0.00,,,0.00,meteohub,2013-09-02 11:42:00,
2013-09-02 06:47:00,60.1,58.6,29.91,NNW,346,0.0,1.0,95,0.00,,,0.00,meteohub,2013-09-02 11:47:00,
2013-09-02 06:52:00,61.0,59.5,29.91,WNW,298,1.0,2.0,95,0.00,,,0.00,meteohub,2013-09-02 11:52:00,
2013-09-02 06:57:00,61.2,60.1,29.91,WNW,303,1.0,2.0,96,0.00,,,0.00,meteohub,2013-09-02 11:57:00,
2013-09-02 07:02:00,61.5,60.1,29.91,NW,304,0.0,2.0,95,0.00,,,0.00,meteohub,2013-09-02 12:02:00,
2013-09-02 07:07:00,61.7,60.3,29.91,NW,304,0.0,3.0,95,0.00,,,0.00,meteohub,2013-09-02 12:07:00,
2013-09-02 07:12:00,61.9,60.4,29.91,NNW,330,0.0,3.0,95,0.00,,,0.00,meteohub,2013-09-02 12:12:00,
2013-09-02 07:17:00,62.1,60.6,29.92,NNW,329,0.0,5.0,95,0.00,,,0.00,meteohub,2013-09-02 12:17:00,
2013-09-02 07:22:00,62.1,60.3,29.92,NNW,327,2.0,5.0,94,0.00,,,0.00,meteohub,2013-09-02 12:22:00,
2013-09-02 07:27:00,62.2,60.4,29.91,NW,326,0.0,5.0,94,0.00,,,0.00,meteohub,2013-09-02 12:27:00,
2013-09-02 07:32:00,62.2,60.4,29.92,NW,325,0.0,5.0,94,0.00,,,0.00,meteohub,2013-09-02 12:32:00,
2013-09-02 07:37:00,62.4,60.4,29.92,NW,325,1.0,2.0,93,0.00,,,0.00,meteohub,2013-09-02 12:37:00,
2013-09-02 07:42:00,62.6,60.8,29.92,NW,323,0.0,2.0,94,0.00,,,0.00,meteohub,2013-09-02 12:42:00,
2013-09-02 07:47:00,62.8,61.0,29.92,NW,319,2.0,3.0,94,0.00,,,0.00,meteohub,2013-09-02 12:47:00,
2013-09-02 07:52:00,63.0,61.0,29.92,NW,309,0.0,6.0,93,0.00,,,0.00,meteohub,2013-09-02 12:52:00,
2013-09-02 07:57:00,63.1,61.2,29.92,NW,314,1.0,6.0,93,0.00,,,0.00,meteohub,2013-09-02 12:57:00,
2013-09-02 08:02:00,63.3,61.3,29.93,NW,319,3.0,6.0,93,0.00,,,0.00,meteohub,2013-09-02 13:02:00,
2013-09-02 08:07:00,63.7,61.7,29.93,NW,311,0.0,7.0,93,0.00,,,0.00,meteohub,2013-09-02 13:07:00,
2013-09-02 08:12:00,63.7,61.3,29.93,NW,315,2.0,7.0,92,0.00,,,0.00,meteohub,2013-09-02 13:12:00,
2013-09-02 08:17:00,63.9,61.5,29.93,NW,320,2.0,7.0,92,0.00,,,0.00,meteohub,2013-09-02 13:17:00,
2013-09-02 08:22:00,64.0,62.1,29.93,NW,312,4.0,6.0,93,0.00,,,0.00,meteohub,2013-09-02 13:22:00,
2013-09-02 08:27:00,64.0,61.7,29.94,NW,319,1.0,6.0,92,0.00,,,0.00,meteohub,2013-09-02 13:27:00,
2013-09-02 08:32:00,63.9,61.5,29.94,WNW,294,2.0,7.0,92,0.00,,,0.00,meteohub,2013-09-02 13:32:00,
2013-09-02 08:37:00,64.0,61.7,29.94,NW,312,1.0,7.0,92,0.00,,,0.00,meteohub,2013-09-02 13:37:00,
2013-09-02 08:42:00,63.9,61.2,29.94,NW,310,5.0,7.0,91,0.00,,,0.00,meteohub,2013-09-02 13:42:00,
2013-09-02 08:47:00,63.9,61.5,29.94,WNW,299,4.0,7.0,92,0.00,,,0.00,meteohub,2013-09-02 13:47:00,
2013-09-02 08:52:00,64.0,62.1,29.94,NNW,342,8.0,8.0,93,0.00,,,0.00,meteohub,2013-09-02 13:52:00,
2013-09-02 08:57:00,64.0,61.7,29.95,WNW,302,3.0,8.0,92,0.00,,,0.00,meteohub,2013-09-02 13:57:00,
2013-09-02 09:02:00,64.2,61.5,29.95,NW,317,2.0,8.0,91,0.00,,,0.00,meteohub,2013-09-02 14:02:00,
2013-09-02 09:07:00,64.2,61.5,29.95,NW,308,0.0,8.0,91,0.00,,,0.00,meteohub,2013-09-02 14:07:00,
2013-09-02 09:12:00,64.4,61.7,29.95,NW,312,0.0,7.0,91,0.00,,,0.00,meteohub,2013-09-02 14:12:00,
2013-09-02 09:17:00,64.6,61.9,29.95,NW,314,2.0,8.0,91,0.00,,,0.00,meteohub,2013-09-02 14:17:00,
2013-09-02 09:22:00,64.6,61.9,29.95,NW,319,3.0,8.0,91,0.00,,,0.00,meteohub,2013-09-02 14:22:00,
2013-09-02 09:27:00,64.8,61.7,29.95,WNW,298,3.0,8.0,90,0.00,,,0.00,meteohub,2013-09-02 14:27:00,
2013-09-02 09:32:00,64.9,61.9,29.96,West,267,7.0,7.0,90,0.00,,,0.00,meteohub,2013-09-02 14:32:00,
2013-09-02 09:37:00,64.9,61.7,29.95,NNW,346,2.0,7.0,89,0.00,,,0.00,meteohub,2013-09-02 14:37:00,
2013-09-02 09:42:00,65.1,61.9,29.95,WNW,298,5.0,7.0,89,0.00,,,0.00,meteohub,2013-09-02 14:42:00,
2013-09-02 09:47:00,65.1,61.5,29.95,NW,305,2.0,7.0,88,0.00,,,0.00,meteohub,2013-09-02 14:47:00,
2013-09-02 09:52:00,65.1,61.9,29.95,WNW,302,5.0,7.0,89,0.00,,,0.00,meteohub,2013-09-02 14:52:00,
2013-09-02 09:57:00,65.5,61.9,29.96,NW,308,6.0,8.0,88,0.00,,,0.00,meteohub,2013-09-02 14:57:00,
2013-09-02 10:02:00,65.3,62.1,29.96,NW,315,0.0,8.0,89,0.00,,,0.00,meteohub,2013-09-02 15:02:00,
2013-09-02 10:07:00,65.5,61.5,29.96,NW,319,1.0,8.0,87,0.00,,,0.00,meteohub,2013-09-02 15:07:00,
2013-09-02 10:12:00,65.7,61.7,29.96,NW,313,5.0,7.0,87,0.00,,,0.00,meteohub,2013-09-02 15:12:00,
2013-09-02 10:17:00,65.7,61.7,29.96,NW,315,1.0,7.0,87,0.00,,,0.00,meteohub,2013-09-02 15:17:00,
2013-09-02 10:22:00,65.5,61.9,29.96,NW,317,2.0,8.0,88,0.00,,,0.00,meteohub,2013-09-02 15:22:00,
2013-09-02 10:27:00,65.7,61.7,29.96,NNW,334,2.0,8.0,87,0.00,,,0.00,meteohub,2013-09-02 15:27:00,
2013-09-02 10:32:00,65.7,61.7,29.96,NW,314,1.0,8.0,87,0.00,,,0.00,meteohub,2013-09-02 15:32:00,
2013-09-02 10:37:00,65.8,62.2,29.96,NW,317,4.0,9.0,88,0.00,,,0.00,meteohub,2013-09-02 15:37:00,
2013-09-02 10:42:00,65.7,61.7,29.96,NW,312,0.0,9.0,87,0.00,,,0.00,meteohub,2013-09-02 15:42:00,
2013-09-02 10:47:00,65.7,61.7,29.97,WNW,296,5.0,9.0,87,0.00,,,0.00,meteohub,2013-09-02 15:47:00,
2013-09-02 10:52:00,65.8,62.2,29.96,NNW,330,1.0,9.0,88,0.00,,,0.00,meteohub,2013-09-02 15:52:00,
2013-09-02 10:57:00,66.0,61.3,29.97,NW,319,5.0,7.0,85,0.00,,,0.00,meteohub,2013-09-02 15:57:00,
2013-09-02 11:02:00,66.2,61.5,29.97,NW,315,0.0,6.0,85,0.00,,,0.00,meteohub,2013-09-02 16:02:00,
2013-09-02 11:07:00,66.2,61.5,29.97,NW,313,4.0,6.0,85,0.00,,,0.00,meteohub,2013-09-02 16:07:00,
2013-09-02 11:12:00,66.0,61.3,29.97,NW,304,4.0,8.0,85,0.00,,,0.00,meteohub,2013-09-02 16:12:00,
2013-09-02 11:17:00,66.4,61.7,29.97,North,355,8.0,8.0,85,0.00,,,0.00,meteohub,2013-09-02 16:17:00,
2013-09-02 11:22:00,66.6,61.5,29.96,NW,309,0.0,8.0,84,0.00,,,0.00,meteohub,2013-09-02 16:22:00,
2013-09-02 11:27:00,66.7,62.1,29.96,NW,309,2.0,8.0,85,0.00,,,0.00,meteohub,2013-09-02 16:27:00,
2013-09-02 11:32:00,66.6,61.5,29.96,NW,319,6.0,8.0,84,0.00,,,0.00,meteohub,2013-09-02 16:32:00,
2013-09-02 11:37:00,66.4,61.0,29.97,NW,319,3.0,9.0,83,0.00,,,0.00,meteohub,2013-09-02 16:37:00,
2013-09-02 11:42:00,66.4,60.8,29.97,WNW,300,5.0,9.0,82,0.00,,,0.00,meteohub,2013-09-02 16:42:00,
2013-09-02 11:47:00,66.6,61.0,29.97,WNW,287,5.0,9.0,82,0.00,,,0.00,meteohub,2013-09-02 16:47:00,
2013-09-02 11:52:00,66.7,60.8,29.97,NW,318,5.0,9.0,81,0.00,,,0.00,meteohub,2013-09-02 16:52:00,
2013-09-02 11:57:00,67.3,61.5,29.97,NW,306,6.0,9.0,82,0.00,,,0.00,meteohub,2013-09-02 16:57:00,
2013-09-02 12:02:00,67.3,61.5,29.97,WNW,300,5.0,9.0,82,0.00,,,0.00,meteohub,2013-09-02 17:02:00,
2013-09-02 12:07:00,67.3,61.2,29.97,WNW,299,1.0,9.0,81,0.00,,,0.00,meteohub,2013-09-02 17:07:00,
2013-09-02 12:12:00,67.3,61.2,29.97,NW,325,4.0,9.0,81,0.00,,,0.00,meteohub,2013-09-02 17:12:00,
2013-09-02 12:17:00,67.5,61.3,29.97,NW,313,5.0,9.0,81,0.00,,,0.00,meteohub,2013-09-02 17:17:00,
2013-09-02 12:22:00,67.5,60.8,29.97,NW,314,8.0,9.0,79,0.00,,,0.00,meteohub,2013-09-02 17:22:00,
2013-09-02 12:27:00,67.5,60.8,29.97,NNW,328,4.0,9.0,79,0.00,,,0.00,meteohub,2013-09-02 17:27:00,
2013-09-02 12:32:00,67.3,60.3,29.98,NW,310,3.0,9.0,78,0.00,,,0.00,meteohub,2013-09-02 17:32:00,
2013-09-02 12:37:00,67.5,60.8,29.98,WNW,302,1.0,9.0,79,0.00,,,0.00,meteohub,2013-09-02 17:37:00,
2013-09-02 12:42:00,67.5,60.4,29.98,NW,313,5.0,9.0,78,0.00,,,0.00,meteohub,2013-09-02 17:42:00,
2013-09-02 12:47:00,67.6,60.6,29.98,WNW,298,2.0,10.0,78,0.00,,,0.00,meteohub,2013-09-02 17:47:00,
2013-09-02 12:52:00,67.6,60.6,29.98,NNW,327,2.0,10.0,78,0.00,,,0.00,meteohub,2013-09-02 17:52:00,
2013-09-02 12:57:00,68.0,60.4,29.97,NW,306,4.0,8.0,77,0.00,,,0.00,meteohub,2013-09-02 17:57:00,
2013-09-02 13:02:00,68.2,60.3,29.97,NW,308,2.0,8.0,76,0.00,,,0.00,meteohub,2013-09-02 18:02:00,
2013-09-02 13:07:00,67.8,59.5,29.97,NNW,344,1.0,6.0,75,0.00,,,0.00,meteohub,2013-09-02 18:07:00,
2013-09-02 13:12:00,68.0,60.4,29.97,WNW,298,5.0,7.0,77,0.00,,,0.00,meteohub,2013-09-02 18:12:00,
2013-09-02 13:17:00,68.7,60.4,29.97,NW,308,2.0,7.0,75,0.00,,,0.00,meteohub,2013-09-02 18:17:00,
2013-09-02 13:22:00,68.7,59.4,29.97,NW,319,0.0,7.0,72,0.00,,,0.00,meteohub,2013-09-02 18:22:00,
2013-09-02 13:27:00,68.7,59.7,29.97,WNW,296,0.0,8.0,73,0.00,,,0.00,meteohub,2013-09-02 18:27:00,
2013-09-02 13:32:00,68.7,59.7,29.97,NW,319,0.0,8.0,73,0.00,,,0.00,meteohub,2013-09-02 18:32:00,
2013-09-02 13:37:00,68.7,60.1,29.97,NW,311,0.0,8.0,74,0.00,,,0.00,meteohub,2013-09-02 18:37:00,
2013-09-02 13:42:00,69.3,59.9,29.96,NW,313,5.0,6.0,72,0.00,,,0.00,meteohub,2013-09-02 18:42:00,
2013-09-02 13:47:00,69.6,60.6,29.97,West,279,2.0,10.0,73,0.00,,,0.00,meteohub,2013-09-02 18:47:00,
2013-09-02 13:52:00,70.0,60.1,29.97,WNW,288,9.0,10.0,71,0.00,,,0.00,meteohub,2013-09-02 18:52:00,
2013-09-02 13:57:00,70.3,60.1,29.96,NW,311,0.0,10.0,70,0.00,,,0.00,meteohub,2013-09-02 18:57:00,
2013-09-02 14:02:00,70.5,59.0,29.96,NW,306,0.0,10.0,67,0.00,,,0.00,meteohub,2013-09-02 19:02:00,
2013-09-02 14:07:00,70.2,59.2,29.97,NW,311,1.0,9.0,68,0.00,,,0.00,meteohub,2013-09-02 19:07:00,
2013-09-02 14:12:00,69.6,59.0,29.97,NW,319,3.0,10.0,69,0.00,,,0.00,meteohub,2013-09-02 19:12:00,
2013-09-02 14:17:00,69.4,58.8,29.97,NW,311,5.0,10.0,69,0.00,,,0.00,meteohub,2013-09-02 19:17:00,
2013-09-02 14:22:00,69.6,59.0,29.96,NW,311,5.0,10.0,69,0.00,,,0.00,meteohub,2013-09-02 19:22:00,
2013-09-02 14:27:00,69.6,59.0,29.96,NW,305,6.0,11.0,69,0.00,,,0.00,meteohub,2013-09-02 19:27:00,
2013-09-02 14:32:00,69.4,59.2,29.96,NW,313,10.0,11.0,70,0.00,,,0.00,meteohub,2013-09-02 19:32:00,
2013-09-02 14:37:00,69.3,59.5,29.96,NNW,328,5.0,11.0,71,0.00,,,0.00,meteohub,2013-09-02 19:37:00,
2013-09-02 14:42:00,69.3,59.5,29.96,NW,307,1.0,11.0,71,0.00,,,0.00,meteohub,2013-09-02 19:42:00,
2013-09-02 14:47:00,69.4,59.2,29.96,NW,323,0.0,10.0,70,0.00,,,0.00,meteohub,2013-09-02 19:47:00,
2013-09-02 14:52:00,70.0,60.6,29.96,WNW,297,1.0,9.0,72,0.00,,,0.00,meteohub,2013-09-02 19:52:00,
2013-09-02 14:57:00,70.3,59.4,29.96,NW,323,0.0,6.0,68,0.00,,,0.00,meteohub,2013-09-02 19:57:00,
2013-09-02 15:02:00,70.3,59.7,29.96,NW,308,0.0,6.0,69,0.00,,,0.00,meteohub,2013-09-02 20:02:00,
2013-09-02 15:07:00,69.8,59.9,29.96,NW,318,5.0,9.0,71,0.00,,,0.00,meteohub,2013-09-02 20:07:00,
2013-09-02 15:12:00,69.4,59.5,29.96,NW,309,7.0,14.0,71,0.00,,,0.00,meteohub,2013-09-02 20:12:00,
2013-09-02 15:17:00,69.4,59.2,29.96,WNW,303,1.0,14.0,70,0.00,,,0.00,meteohub,2013-09-02 20:17:00,
2013-09-02 15:22:00,69.6,60.3,29.96,NW,308,2.0,9.0,72,0.00,,,0.00,meteohub,2013-09-02 20:22:00,
2013-09-02 15:27:00,69.6,60.6,29.96,NW,312,0.0,8.0,73,0.00,,,0.00,meteohub,2013-09-02 20:27:00,
2013-09-02 15:32:00,69.3,60.3,29.96,NW,321,6.0,8.0,73,0.00,,,0.00,meteohub,2013-09-02 20:32:00,
2013-09-02 15:37:00,69.1,59.7,29.96,NNW,330,5.0,9.0,72,0.00,,,0.00,meteohub,2013-09-02 20:37:00,
2013-09-02 15:42:00,69.3,60.3,29.96,NW,308,3.0,10.0,73,0.00,,,0.00,meteohub,2013-09-02 20:42:00,
2013-09-02 15:47:00,69.4,59.5,29.96,NW,315,2.0,10.0,71,0.00,,,0.00,meteohub,2013-09-02 20:47:00,
2013-09-02 15:52:00,69.6,60.3,29.96,West,272,4.0,9.0,72,0.00,,,0.00,meteohub,2013-09-02 20:52:00,
2013-09-02 15:57:00,69.6,60.3,29.96,NE,56,2.0,9.0,72,0.00,,,0.00,meteohub,2013-09-02 20:57:00,
2013-09-02 16:02:00,69.6,60.3,29.96,NW,320,7.0,9.0,72,0.00,,,0.00,meteohub,2013-09-02 21:02:00,
2013-09-02 16:07:00,70.0,59.4,29.96,NW,315,7.0,10.0,69,0.00,,,0.00,meteohub,2013-09-02 21:07:00,
2013-09-02 16:12:00,69.4,57.9,29.96,WNW,298,7.0,10.0,67,0.00,,,0.00,meteohub,2013-09-02 21:12:00,
2013-09-02 16:17:00,69.4,58.8,29.96,WNW,302,1.0,11.0,69,0.00,,,0.00,meteohub,2013-09-02 21:17:00,
2013-09-02 16:22:00,69.4,58.8,29.96,NW,319,4.0,11.0,69,0.00,,,0.00,meteohub,2013-09-02 21:22:00,
2013-09-02 16:27:00,69.4,58.5,29.96,NW,321,0.0,11.0,68,0.00,,,0.00,meteohub,2013-09-02 21:27:00,
2013-09-02 16:32:00,69.4,57.9,29.96,West,271,5.0,9.0,67,0.00,,,0.00,meteohub,2013-09-02 21:32:00,
2013-09-02 16:37:00,69.4,57.2,29.96,NW,311,7.0,8.0,65,0.00,,,0.00,meteohub,2013-09-02 21:37:00,
2013-09-02 16:42:00,69.4,57.2,29.96,NW,313,3.0,9.0,65,0.00,,,0.00,meteohub,2013-09-02 21:42:00,
2013-09-02 16:47:00,69.6,57.4,29.96,WNW,296,6.0,9.0,65,0.00,,,0.00,meteohub,2013-09-02 21:47:00,
2013-09-02 16:52:00,69.4,57.6,29.96,NW,305,4.0,9.0,66,0.00,,,0.00,meteohub,2013-09-02 21:52:00,
2013-09-02 16:57:00,69.1,57.2,29.96,WNW,286,5.0,8.0,66,0.00,,,0.00,meteohub,2013-09-02 21:57:00,
2013-09-02 17:02:00,69.1,57.7,29.97,NW,312,3.0,9.0,67,0.00,,,0.00,meteohub,2013-09-02 22:02:00,
2013-09-02 17:07:00,68.7,57.7,29.96,NW,309,2.0,9.0,68,0.00,,,0.00,meteohub,2013-09-02 22:07:00,
2013-09-02 17:12:00,68.7,57.7,29.97,NW,313,1.0,7.0,68,0.00,,,0.00,meteohub,2013-09-02 22:12:00,
2013-09-02 17:17:00,68.7,57.7,29.97,NW,321,1.0,6.0,68,0.00,,,0.00,meteohub,2013-09-02 22:17:00,
2013-09-02 17:22:00,68.7,58.5,29.97,NW,319,0.0,6.0,70,0.00,,,0.00,meteohub,2013-09-02 22:22:00,
2013-09-02 17:27:00,68.7,59.0,29.96,NNE,12,0.0,5.0,71,0.00,,,0.00,meteohub,2013-09-02 22:27:00,
2013-09-02 17:32:00,68.5,58.8,29.96,WNW,300,0.0,5.0,71,0.00,,,0.00,meteohub,2013-09-02 22:32:00,
2013-09-02 17:37:00,68.5,58.8,29.96,NNW,336,2.0,6.0,71,0.00,,,0.00,meteohub,2013-09-02 22:37:00,
2013-09-02 17:42:00,68.9,59.2,29.96,NW,307,0.0,6.0,71,0.00,,,0.00,meteohub,2013-09-02 22:42:00,
2013-09-02 17:47:00,69.3,58.6,29.96,NW,313,2.0,6.0,69,0.00,,,0.00,meteohub,2013-09-02 22:47:00,
2013-09-02 17:53:00,69.3,57.9,29.96,WNW,298,1.0,6.0,67,0.00,,,0.00,meteohub,2013-09-02 22:53:00,
2013-09-02 17:58:00,69.4,58.5,29.97,WNW,302,0.0,6.0,68,0.00,,,0.00,meteohub,2013-09-02 22:58:00,
2013-09-02 18:03:00,69.3,57.9,29.97,WNW,300,0.0,6.0,67,0.00,,,0.00,meteohub,2013-09-02 23:03:00,
2013-09-02 18:08:00,68.5,57.6,29.97,WNW,296,5.0,6.0,68,0.00,,,0.00,meteohub,2013-09-02 23:08:00,
2013-09-02 18:13:00,68.4,58.3,29.97,WNW,301,1.0,8.0,70,0.00,,,0.00,meteohub,2013-09-02 23:13:00,
2013-09-02 18:18:00,68.2,58.5,29.97,WNW,302,5.0,8.0,71,0.00,,,0.00,meteohub,2013-09-02 23:18:00,
2013-09-02 18:23:00,68.2,58.1,29.97,NW,311,1.0,7.0,70,0.00,,,0.00,meteohub,2013-09-02 23:23:00,
2013-09-02 18:28:00,68.0,58.6,29.97,NW,312,1.0,5.0,72,0.00,,,0.00,meteohub,2013-09-02 23:28:00,
2013-09-02 18:33:00,67.8,58.5,29.97,West,273,5.0,5.0,72,0.00,,,0.00,meteohub,2013-09-02 23:33:00,
2013-09-02 18:39:00,67.6,58.3,29.97,NW,305,2.0,5.0,72,0.00,,,0.00,meteohub,2013-09-02 23:39:00,
2013-09-02 18:44:00,67.5,58.5,29.97,NW,306,1.0,7.0,73,0.00,,,0.00,meteohub,2013-09-02 23:44:00,
2013-09-02 18:49:00,67.3,58.3,29.98,NW,305,1.0,7.0,73,0.00,,,0.00,meteohub,2013-09-02 23:49:00,
2013-09-02 18:54:00,66.9,57.9,29.98,NW,305,3.0,6.0,73,0.00,,,0.00,meteohub,2013-09-02 23:54:00,
2013-09-02 18:59:00,66.7,58.1,29.98,NW,316,0.0,4.0,74,0.00,,,0.00,meteohub,2013-09-02 23:59:00,
2013-09-02 19:04:00,66.6,57.6,29.98,WNW,300,1.0,4.0,73,0.00,,,0.00,meteohub,2013-09-03 00:04:00,
2013-09-02 19:09:00,66.4,57.9,29.98,WNW,294,0.0,5.0,74,0.00,,,0.00,meteohub,2013-09-03 00:09:00,
2013-09-02 19:15:00,66.2,58.1,29.98,WNW,303,1.0,5.0,75,0.00,,,0.00,meteohub,2013-09-03 00:15:00,
2013-09-02 19:20:00,66.0,58.3,29.98,North,350,0.0,4.0,76,0.00,,,0.00,meteohub,2013-09-03 00:20:00,
2013-09-02 19:25:00,65.8,57.7,29.98,West,280,0.0,3.0,75,0.00,,,0.00,meteohub,2013-09-03 00:25:00,
2013-09-02 19:30:00,65.5,57.4,29.98,NW,312,0.0,3.0,75,0.00,,,0.00,meteohub,2013-09-03 00:30:00,
2013-09-02 19:35:00,65.1,57.4,29.98,NNE,15,0.0,2.0,76,0.00,,,0.00,meteohub,2013-09-03 00:35:00,
2013-09-02 19:40:00,64.8,57.7,29.99,NNW,339,1.0,2.0,78,0.00,,,0.00,meteohub,2013-09-03 00:40:00,
2013-09-02 19:45:00,64.6,57.6,29.98,NNW,338,0.0,2.0,78,0.00,,,0.00,meteohub,2013-09-03 00:45:00,
2013-09-02 19:50:00,64.2,57.2,29.98,NNW,340,0.0,2.0,78,0.00,,,0.00,meteohub,2013-09-03 00:50:00,
2013-09-02 19:55:00,63.9,56.8,29.98,NNE,18,0.0,2.0,78,0.00,,,0.00,meteohub,2013-09-03 00:55:00,
2013-09-02 20:01:00,63.7,57.0,29.99,NNE,13,0.0,2.0,79,0.00,,,0.00,meteohub,2013-09-03 01:01:00,
2013-09-02 20:06:00,63.5,57.2,29.99,NNE,13,0.0,2.0,80,0.00,,,0.00,meteohub,2013-09-03 01:06:00,
2013-09-02 20:11:00,63.3,57.4,29.99,NNW,336,1.0,1.0,81,0.00,,,0.00,meteohub,2013-09-03 01:11:00,
2013-09-02 20:16:00,63.3,57.7,29.99,NNW,336,0.0,2.0,82,0.00,,,0.00,meteohub,2013-09-03 01:16:00,
2013-09-02 20:21:00,63.3,57.7,29.99,NNW,335,0.0,2.0,82,0.00,,,0.00,meteohub,2013-09-03 01:21:00,
2013-09-02 20:26:00,63.1,57.2,29.99,NNW,335,0.0,2.0,81,0.00,,,0.00,meteohub,2013-09-03 01:26:00,
2013-09-02 20:31:00,63.1,57.2,29.99,NNW,331,0.0,2.0,81,0.00,,,0.00,meteohub,2013-09-03 01:31:00,
2013-09-02 20:36:00,63.1,57.6,29.99,NNW,331,0.0,2.0,82,0.00,,,0.00,meteohub,2013-09-03 01:36:00,
2013-09-02 20:41:00,62.6,57.4,29.99,NNW,331,0.0,2.0,83,0.00,,,0.00,meteohub,2013-09-03 01:41:00,
2013-09-02 20:46:00,62.2,57.0,29.99,NNW,331,0.0,2.0,83,0.00,,,0.00,meteohub,2013-09-03 01:46:00,
2013-09-02 20:51:00,62.1,56.5,29.99,NNW,331,0.0,0.0,82,0.00,,,0.00,meteohub,2013-09-03 01:51:00,
2013-09-02 20:57:00,61.9,56.7,30.00,NNW,331,0.0,0.0,83,0.00,,,0.00,meteohub,2013-09-03 01:57:00,
2013-09-02 21:02:00,61.9,56.7,30.00,NNW,331,0.0,1.0,83,0.00,,,0.00,meteohub,2013-09-03 02:02:00,
2013-09-02 21:07:00,62.1,56.5,30.00,NNW,331,0.0,2.0,82,0.00,,,0.00,meteohub,2013-09-03 02:07:00,
2013-09-02 21:12:00,62.2,56.7,30.01,NNW,331,0.0,2.0,82,0.00,,,0.00,meteohub,2013-09-03 02:12:00,
2013-09-02 21:17:00,62.2,57.0,30.01,NNW,331,0.0,2.0,83,0.00,,,0.00,meteohub,2013-09-03 02:17:00,
2013-09-02 21:22:00,62.2,57.0,30.01,NNW,331,0.0,1.0,83,0.00,,,0.00,meteohub,2013-09-03 02:22:00,
2013-09-02 21:27:00,62.1,56.5,30.01,NNW,331,0.0,0.0,82,0.00,,,0.00,meteohub,2013-09-03 02:27:00,
2013-09-02 21:32:00,62.1,56.5,30.01,NNW,331,0.0,0.0,82,0.00,,,0.00,meteohub,2013-09-03 02:32:00,
2013-09-02 21:37:00,61.9,56.3,30.01,NNW,331,0.0,0.0,82,0.00,,,0.00,meteohub,2013-09-03 02:37:00,
2013-09-02 21:42:00,61.7,56.1,30.01,NNW,331,0.0,0.0,82,0.00,,,0.00,meteohub,2013-09-03 02:42:00,
2013-09-02 21:47:00,61.5,55.9,30.01,NNW,331,0.0,1.0,82,0.00,,,0.00,meteohub,2013-09-03 02:47:00,
2013-09-02 21:52:00,61.3,55.8,30.01,NNW,331,0.0,1.0,82,0.00,,,0.00,meteohub,2013-09-03 02:52:00,
2013-09-02 21:57:00,61.2,55.9,30.01,NNW,331,0.0,1.0,83,0.00,,,0.00,meteohub,2013-09-03 02:57:00,
2013-09-02 22:02:00,61.2,55.9,30.01,NNW,331,0.0,1.0,83,0.00,,,0.00,meteohub,2013-09-03 03:02:00,
2013-09-02 22:07:00,61.0,56.1,30.01,NNW,331,0.0,1.0,84,0.00,,,0.00,meteohub,2013-09-03 03:07:00,
2013-09-02 22:12:00,60.8,55.6,30.01,NNW,332,0.0,1.0,83,0.00,,,0.00,meteohub,2013-09-03 03:12:00,
2013-09-02 22:17:00,60.6,55.4,30.01,NNW,332,0.0,2.0,83,0.00,,,0.00,meteohub,2013-09-03 03:17:00,
2013-09-02 22:22:00,60.4,55.2,30.01,NNW,332,0.0,2.0,83,0.00,,,0.00,meteohub,2013-09-03 03:22:00,
2013-09-02 22:27:00,60.4,55.2,30.01,NNW,333,0.0,2.0,83,0.00,,,0.00,meteohub,2013-09-03 03:27:00,
2013-09-02 22:32:00,60.4,55.2,30.01,NNW,333,0.0,2.0,83,0.00,,,0.00,meteohub,2013-09-03 03:32:00,
2013-09-02 22:37:00,60.4,55.6,30.01,NNW,333,0.0,2.0,84,0.00,,,0.00,meteohub,2013-09-03 03:37:00,
2013-09-02 22:42:00,60.3,55.4,30.01,NNW,333,0.0,2.0,84,0.00,,,0.00,meteohub,2013-09-03 03:42:00,
2013-09-02 22:47:00,60.3,55.8,30.01,NNW,333,0.0,0.0,85,0.00,,,0.00,meteohub,2013-09-03 03:47:00,
2013-09-02 22:52:00,60.1,55.9,30.01,NNW,333,0.0,0.0,86,0.00,,,0.00,meteohub,2013-09-03 03:52:00,
2013-09-02 22:57:00,59.7,55.8,30.02,NW,323,1.0,0.0,87,0.00,,,0.00,meteohub,2013-09-03 03:57:00,
2013-09-02 23:01:00,59.7,56.1,30.01,NW,323,0.0,1.0,88,0.00,,,0.00,meteohub,2013-09-03 04:01:00,
2013-09-02 23:02:00,59.7,56.1,30.01,NW,323,0.0,1.0,88,0.00,,,0.00,meteohub,2013-09-03 04:02:00,
2013-09-02 23:03:00,59.7,56.1,30.01,NW,323,0.0,1.0,88,0.00,,,0.00,meteohub,2013-09-03 04:03:00,
2013-09-02 23:06:00,59.7,55.8,30.01,NW,323,0.0,1.0,87,0.00,,,0.00,meteohub,2013-09-03 04:06:00,
2013-09-02 23:11:00,59.5,55.6,30.01,NW,323,0.0,1.0,87,0.00,,,0.00,meteohub,2013-09-03 04:11:00,
2013-09-02 23:16:00,59.0,55.4,30.01,NW,323,0.0,1.0,88,0.00,,,0.00,meteohub,2013-09-03 04:16:00,
2013-09-02 23:17:00,59.0,55.4,30.01,NW,323,0.0,1.0,88,0.00,,,0.00,meteohub,2013-09-03 04:17:00,
2013-09-02 23:22:00,58.6,55.0,30.01,NW,323,0.0,1.0,88,0.00,,,0.00,meteohub,2013-09-03 04:22:00,
2013-09-02 23:27:00,58.3,54.7,30.02,NW,323,0.0,1.0,88,0.00,,,0.00,meteohub,2013-09-03 04:27:00,
2013-09-02 23:32:00,58.1,54.5,30.01,NW,323,0.0,0.0,88,0.00,,,0.00,meteohub,2013-09-03 04:32:00,
2013-09-02 23:37:00,57.9,54.3,30.01,NW,323,0.0,0.0,88,0.00,,,0.00,meteohub,2013-09-03 04:37:00,
2013-09-02 23:42:00,57.9,54.3,30.01,NW,323,0.0,1.0,88,0.00,,,0.00,meteohub,2013-09-03 04:42:00,
2013-09-02 23:47:00,57.9,54.3,30.01,NW,323,0.0,1.0,88,0.00,,,0.00,meteohub,2013-09-03 04:47:00,
2013-09-02 23:52:00,57.7,54.1,30.02,NW,323,0.0,1.0,88,0.00,,,0.00,meteohub,2013-09-03 04:52:00,
2013-09-02 23:57:00,57.7,54.1,30.02,NW,323,0.0,1.0,88,0.00,,,0.00,meteohub,2013-09-03 04:57:00,